User: anonymous   Login
Location: Unspecified
(0.0000°N, 0.0000°E)
Time: 01:18:10
(UTC+00:00)
Language:

Nimbus 7 Rocket - Orbit

View from above orbital plane
View from above orbital plane
View from above satellite
View from above satellite

Ground track
Ground track

The orbit data is extracted from the following two-line orbital elements,

1 11081U 78098B   18265.59854267 -.00000012 +00000-0 +29376-4 0  9996
2 11081 099.4821 150.0733 0029632 121.4575 238.9482 13.85657379856584
Epoch (UTC): 22 September 2018 14:21:54
Eccentricity: 0.0029632
inclination: 99.4821°
perigee height: 922 km
apogee height: 965 km
right ascension of ascending node: 150.0733°
argument of perigee: 121.4575°
revolutions per day: 13.85657379
mean anomaly at epoch: 238.9482°
orbit number at epoch: 85658

The dashed part of the orbit path shows where the satellite is in the earth's shadow,  

DLR